Find Starlink 35

NORAD ID: 44264 Int'l Des: 2019-029 Owner: SPXS Country: US Constellation: starlink decayed
LEOCIRCULAR

Re-entered — Sep 16, 2020

Loading 3D Globe...

About Starlink 35

Starlink 35 (NORAD 44264) is a starlink constellation satellite (v1.0) launched May 24, 2019 by SPXS of US. It re-entered the atmosphere on Sep 16, 2020. with a mass of 227.00 kg.

Altitude History

Loading altitude history...

Two-Line Element Set

1 44264U 19029AF 20260.70722731 .18133919 12437-4 11425-2 0 9991
2 44264 52.9869 110.3679 0004977 298.2751 61.7792 16.41142759 73517
Epoch: Sep 16, 2020 • Age: 52284 hours

Current Status

Position data unavailable
Launch Date May 24, 2019
Age 7.2 years
Decay Date Sep 16, 2020
Type internet

Technical Details

Classification Payload
Mass 227.00 kg
Dry Mass 219.00 kg
Total Mass 227.00 kg
Length 0.20 m
Diameter 2.80 m
Span 9.00 m
Shape Box + pan
Manufacturer SPXS
Bus Type Starlink
Phase Status Reentered
Owner/State SPXS/US

Most Searched